Location: Leverkusen
(51.0459°N, 7.0192°E)
Time: 00:46:57
(UTC+01:00)

ISS - Visible Passes

Search period start: 24 January 2019 00:00
Search period end: 03 February 2019 00:00
Orbit: 404 x 410 km, 51.6° (Epoch: 24 January)

Date Brightness Start Highest point End Pass type
(mag) Time Alt. Az. Time Alt. Az. Time Alt. Az.
24 Jan -2.2 19:22:44 10° SW 19:24:47 27° S 19:24:47 27° S visible
25 Jan -2.2 18:31:53 10° SSW 18:34:32 22° SE 18:35:41 19° ESE visible
25 Jan -1.0 20:07:26 10° WSW 20:08:24 18° WSW 20:08:24 18° WSW visible
26 Jan -3.5 19:16:08 10° WSW 19:19:13 55° S 19:19:13 55° S visible
27 Jan -3.0 18:24:58 10° SW 18:28:04 39° SSE 18:30:00 19° E visible
27 Jan -1.5 20:01:10 10° W 20:02:42 25° W 20:02:42 25° W visible
28 Jan -4.0 19:09:45 10° WSW 19:13:04 83° SSE 19:13:26 68° E visible
29 Jan -3.6 18:18:23 10° WSW 18:21:40 65° SSE 18:24:07 16° E visible
29 Jan -2.0 19:54:54 10° W 19:56:50 32° W 19:56:50 32° W visible
30 Jan -3.9 19:03:26 10° W 19:06:45 81° N 19:07:30 50° ENE visible
30 Jan -0.2 20:40:01 10° W 20:40:12 11° W 20:40:12 11° W visible
31 Jan -3.8 18:11:59 10° WSW 18:15:17 89° SW 18:18:09 13° E visible
31 Jan -2.5 19:48:34 10° W 19:50:52 41° WNW 19:50:52 41° WNW visible
01 Feb -3.9 18:57:06 10° W 19:00:25 79° N 19:01:32 39° E visible
01 Feb -0.5 20:33:40 10° W 20:34:14 14° W 20:34:14 14° W visible
02 Feb -3.8 18:05:36 10° W 18:08:55 79° N 18:12:12 10° E visible
02 Feb -3.1 19:42:11 10° W 19:44:55 55° WSW 19:44:55 55° WSW visible
